Tracking 17147 objects as of 4-July-2015
HD Live streaming from Space Station

SL-16 DEB

Track SL-16 DEB now!
10-day predictions
SL-16 DEB is classified as:


NORAD ID: 19658
Int'l Code: 1988-102E
Perigee: 844.6 km
Apogee: 1,138.5 km
Inclination: 71.0 °
Period: 104.8 minutes
Semi major axis: 7362 km
RCS: 0.0923 m2 (small)
Launch date: November 23, 1988
Source: Commonwealth of Independent States (former USSR) (CIS)

Note: This is SATELLITE DEBRIS
Your satellite tracking list
Your tracking list is empty





NASA's NSSDC Master Catalog

Two Line Element Set (TLE):
1 19658U 88102E   15184.41451176  .00000007  00000-0  46287-4 0  9994
2 19658 071.0234 036.2829 0199633 314.6931 097.6639 13.74230020333962

Source of the keplerian elements: AFSPC

N2YO: 208